Stavropol

URMT, Airport temperature: 30°C, qnh:1011 hPa.

 

Stavropol Shpakovskoye Airport

IATA: STW, ICAO: URMT

Charts: CAI GA, Jeppesen

Scenery:
fs9                           fsx                            x-plane

МЕТАR:  URMT 301300Z 10004MPS CAVOK 30/09 Q1011 R07/010070 NOSIG RMK QFE718

Stavropol Shpakovskoye Airport (sometimes appearing as Mikhaylovskoye) is an airport in Stavropol Krai, Russia located 13 km northeast of Stavropol.

Stavropol Shpakovskoye Airport has tolerance for accepting the following types of aircraft: Airbus A319, Airbus A320, Airbus A321, BAe 146, Boeing 737, Boeing 757, Bombardier CRJ 100/200, SAAB-2000, Sukhoi Superjet 100, An-12, An- 24, An-148, Il-14, Il-18, Il-76, Tu-134, Tu-154, Tu-204, Tu-214, Yak-40, Yak-42 and lighter, as well as helicopters of all types .